[[{"header":{"parameterUnit":"m.s-1","parameterCategory":1,"la1":30.2991,"la2":30.254,"lo1":-89.0895,"lo2":-89.0444,"dy":0.0017,"dx":0.0017,"nx":28,"ny":28,"refTime":"2023-07-31T21:00:00:Z","depth":0,"parameterNumber":2,"parameterNumberName":"U-component_of_WINDS"},"data":[0,0,0,0,0,0,0,0,0,0,0,0,0,0,0,0,0,0,0,0,0,0,0,0,0,0,0,0,0,0,0,0,0,0,0,0,0,0,0,0,0,0,0,0,0,0,0,0,0,0,0,0,0,0,0,0,0,0,2.4839,2.484,0,2.4943,2.4944,2.4946,2.4918,2.4916,2.4914,2.4912,2.5019,2.5024,2.5029,0,0,0,0,0,0,0,0,0,0,0,0,0,2.4615,2.462,2.4839,2.484,2.4842,2.4943,2.4944,2.4946,2.4918,2.4916,2.4913,2.4911,2.5018,2.5023,2.5029,0,0,0,0,0,0,0,0,0,0,0,0,0,2.4715,2.4621,2.4839,2.484,2.4841,2.4943,2.4945,2.4946,2.4919,2.4916,2.4913,2.491,2.5016,2.5023,2.503,2.5137,0,0,2.5052,2.5055,0,0,0,0,0,0,0,0,2.471,2.4724,2.4839,2.484,2.4842,2.4914,2.4905,2.501,2.492,2.4889,2.4912,2.4908,2.4987,2.4996,2.5023,2.5142,2.5146,2.5053,2.5057,2.506,2.5062,0,0,0,0,0,0,0,2.4703,2.4719,2.488,2.484,2.4842,2.4835,2.4846,2.4925,2.4954,2.4892,2.489,2.4903,2.4987,2.5016,2.5025,2.5148,2.5052,2.5059,2.5063,2.5066,2.5357,2.536,0,0,0,0,0,0,2.4695,2.4713,2.4877,2.4883,2.4767,2.4842,2.4854,2.4894,2.4954,2.496,2.4905,2.4901,2.5005,2.5017,2.5029,2.5155,2.506,2.5067,2.5071,2.5353,2.5357,2.5361,0,0,0,0,0,0,2.469,2.471,2.4873,2.4798,2.4818,2.4849,2.4895,2.4898,2.4927,2.4964,2.4969,2.4929,2.5003,2.5019,2.5109,2.5159,2.507,2.5076,2.5349,2.5354,2.5359,2.5411,0,0,0,0,0,0,2.4684,2.4708,2.4749,2.4799,2.4822,2.4952,2.4898,2.4902,2.4939,2.4934,2.4987,2.4993,2.5002,2.5099,2.5116,2.5167,2.5082,2.5345,2.5351,2.5358,2.5405,2.5417,2.5428,0,0,0,0,0,2.4676,2.4761,2.4752,2.4772,2.4875,2.4955,2.4968,2.4976,2.4943,2.4984,2.5008,2.4992,2.5151,2.5108,2.5128,2.5181,2.5342,2.535,2.5357,2.54,2.5415,2.5427,0,0,0,0,0,0,2.4717,2.4767,2.4758,2.4861,2.4904,2.495,2.5003,2.4992,2.5046,2.5039,2.5047,2.5059,2.5151,2.5176,2.5127,2.5286,2.5241,2.5253,2.5267,2.5281,2.5293,2.5284,2.5088,0,0,0,0,0,2.4738,2.4799,2.484,2.4927,2.4949,2.4972,2.5008,2.501,2.5055,2.5073,2.5103,2.5147,2.5206,2.5245,2.5303,2.5408,2.5418,2.5455,2.5466,2.5475,2.5485,2.554,2.5556,2.5386,2.5386,2.5386,0,0,2.4782,2.4817,2.4856,2.4936,2.497,2.5032,2.4988,2.5057,2.5102,2.5083,2.517,2.5193,2.5243,2.5341,2.5386,2.5364,2.5534,2.5485,2.5492,2.5497,2.555,2.5566,2.558,2.5391,2.539,2.539,0,0,2.4894,2.4928,2.5003,2.5037,2.5087,2.5102,2.512,2.5167,2.5182,2.5269,2.5255,2.531,2.5413,2.5448,2.5479,2.5602,2.5588,2.562,2.5679,2.5733,2.5746,2.5758,2.58,2.5815,2.563,2.563,2.563,0,2.4942,2.5036,2.5043,2.5112,2.5147,2.5131,2.5206,2.5239,2.5306,2.533,2.5305,2.5432,2.5465,2.5569,2.5599,2.5626,2.5645,2.5614,2.5744,2.5756,2.5767,2.5806,2.5822,2.5634,2.5633,2.5633,2.5633,0,2.5092,2.5157,2.5212,2.5275,2.5317,2.5389,2.5405,2.5446,2.5444,2.5461,2.5549,2.5587,2.565,2.5675,2.5675,2.5779,2.5764,2.5742,2.5696,2.5786,2.5823,2.5839,2.5639,2.5637,2.5636,2.5635,0,0,2.5233,2.5298,2.5318,2.5345,2.5399,2.5449,2.552,2.5581,2.5615,2.5661,2.5719,2.5806,2.5784,2.582,2.5823,2.587,2.5962,2.5842,2.5843,2.5861,2.6076,2.6092,2.6109,2.5953,2.5956,2.5959,2.6071,0,2.5348,2.5472,2.5479,2.5591,2.565,2.5635,2.5696,2.5735,2.5752,2.5804,2.5823,2.5883,2.5852,2.5873,2.5919,2.5941,2.6005,2.5933,2.6006,2.6009,2.5993,2.6129,2.6146,2.6251,2.6086,2.6089,2.6091,0,2.5499,2.5548,2.5666,2.5709,2.5734,2.5789,2.5843,2.5894,2.5937,2.5946,2.5985,2.5981,2.6052,2.6004,2.6101,2.6052,2.6082,2.6098,2.6102,2.6108,2.6054,2.6137,2.6285,2.63,2.6114,2.6112,2.6111,0,2.5587,2.5684,2.5765,2.579,2.5843,2.5881,2.5905,2.5945,2.598,2.6029,2.6051,2.6108,2.6138,2.6181,2.6192,2.6157,2.6288,2.6242,2.6296,2.6296,2.6324,2.6322,2.6477,2.6346,2.6346,2.6346,2.6346,0,2.5714,2.5786,2.5805,2.5856,2.5935,2.5942,2.602,2.6041,2.6077,2.613,2.6122,2.6172,2.6184,2.6236,2.6245,2.6322,2.6337,2.6345,2.6346,2.6345,2.6344,2.6364,2.6356,2.635,2.6349,2.6348,2.6348,0,2.5826,2.5842,2.593,2.5972,2.5984,2.6041,2.6076,2.6124,2.6139,2.6207,2.6223,2.6247,2.6308,2.6323,2.6397,2.6402,2.6493,2.6488,2.6478,2.6477,2.653,2.6524,2.6702,2.6725,2.6581,2.6582,2.6584,0,2.5905,2.596,2.6007,2.6042,2.6067,2.6123,2.6159,2.6167,2.6204,2.6256,2.6297,2.6357,2.6405,2.6502,2.6526,2.6582,2.6577,2.6635,2.6585,2.6581,2.6575,2.6571,2.6576,2.6645,2.6646,2.6647,2.6648,0,2.6043,2.6047,2.6099,2.6153,2.6195,2.6238,2.6279,2.6308,2.6322,2.6364,2.6425,2.6462,2.6536,2.6594,2.6649,2.6673,2.6663,2.6664,2.6679,2.6678,2.6668,2.6672,2.6502,2.666,2.6659,2.6658,2.6657,2.6657,2.6139,2.6186,2.6226,2.6283,2.6314,2.6352,2.6398,2.6418,2.647,2.653,2.6532,2.6598,2.6638,2.671,2.6737,2.6789,2.6771,2.6793,2.6799,2.6803,2.6807,2.6661,2.6799,2.6799,2.6798,2.6798,2.6798,0,2.6274,2.6299,2.6351,2.6408,2.6452,2.6438,2.6482,2.652,2.6578,2.6616,2.6663,2.6732,2.6789,2.6816,2.6872,2.6907,2.6904,2.6921,2.6918,2.6923,2.6821,2.6801,2.6923,2.6923,2.6923,2.6923,2.6923,2.6923,2.635,2.6427,2.6436,2.6529,2.6553,2.6617,2.6643,2.6677,2.6707,2.6785,2.6831,2.6849,2.6882,2.6939,2.699,2.6996,2.7016,2.7036,2.704,2.6944,2.6931,2.6919,2.69,2.7041,2.7041,2.7138,2.7139,2.714]},{"header":{"parameterUnit":"m.s-1","parameterCategory":1,"la1":30.2991,"la2":30.254,"lo1":-89.0895,"lo2":-89.0444,"dy":0.0017,"dx":0.0017,"nx":28,"ny":28,"refTime":"2023-07-31T21:00:00:Z","depth":0,"parameterNumber":3,"parameterNumberName":"V-component_of_WINDS"},"data":[0,0,0,0,0,0,0,0,0,0,0,0,0,0,0,0,0,0,0,0,0,0,0,0,0,0,0,0,0,0,0,0,0,0,0,0,0,0,0,0,0,0,0,0,0,0,0,0,0,0,0,0,0,0,0,0,0,0,3.7099,3.7099,0,3.7079,3.7078,3.7078,3.6987,3.6985,3.6983,3.6981,3.6961,3.6962,3.6964,0,0,0,0,0,0,0,0,0,0,0,0,0,3.7058,3.7059,3.7099,3.7099,3.7098,3.7079,3.7078,3.7078,3.6987,3.6985,3.6982,3.698,3.696,3.6962,3.6964,0,0,0,0,0,0,0,0,0,0,0,0,0,3.7061,3.706,3.7099,3.7051,3.7046,3.7079,3.7078,3.7078,3.6988,3.6985,3.6981,3.6978,3.696,3.6962,3.6964,3.7042,0,0,3.6971,3.6972,0,0,0,0,0,0,0,0,3.7061,3.7062,3.7058,3.7054,3.7049,3.7032,3.7057,3.7066,3.6989,3.701,3.698,3.6977,3.6987,3.6987,3.699,3.7041,3.704,3.6971,3.6972,3.6973,3.6974,0,0,0,0,0,0,0,3.7061,3.7063,3.7091,3.7058,3.7052,3.703,3.7027,3.7058,3.7017,3.7008,3.7001,3.7,3.6984,3.6988,3.6989,3.704,3.6971,3.6973,3.6974,3.6975,3.7152,3.7155,0,0,0,0,0,0,3.7067,3.7063,3.7091,3.709,3.7047,3.7033,3.7029,3.7041,3.7016,3.7009,3.7003,3.6996,3.6986,3.6987,3.6988,3.7076,3.6973,3.6975,3.6977,3.7148,3.7152,3.7156,0,0,0,0,0,0,3.7067,3.7071,3.7092,3.7075,3.7076,3.7037,3.705,3.7042,3.7046,3.7012,3.7005,3.7015,3.6984,3.6985,3.7029,3.7074,3.6976,3.6978,3.7144,3.715,3.7154,3.7254,0,0,0,0,0,0,3.7066,3.7071,3.7101,3.7076,3.7077,3.7134,3.7053,3.7044,3.705,3.7041,3.7021,3.7015,3.6981,3.7026,3.7031,3.7075,3.698,3.714,3.7147,3.7153,3.7246,3.7262,3.7275,0,0,0,0,0,3.7065,3.713,3.7102,3.7106,3.7113,3.7137,3.7137,3.7096,3.7054,3.7083,3.7061,3.7016,3.7069,3.7031,3.7036,3.7082,3.7137,3.7145,3.7152,3.724,3.7258,3.7274,0,0,0,0,0,0,3.7162,3.7126,3.7095,3.7154,3.7149,3.7121,3.7156,3.7118,3.7125,3.7116,3.7065,3.7062,3.7112,3.7102,3.7061,3.7155,3.7095,3.7104,3.716,3.7177,3.7191,3.7193,3.6982,0,0,0,0,0,3.719,3.7212,3.7179,3.7235,3.7234,3.7196,3.7205,3.7173,3.7166,3.7163,3.7145,3.714,3.7154,3.7166,3.7178,3.7244,3.7238,3.7278,3.7292,3.7304,3.7312,3.7345,3.7362,3.7181,3.7181,3.7181,0,0,3.7248,3.7231,3.7249,3.7254,3.7246,3.7269,3.7195,3.7223,3.7239,3.7168,3.7207,3.7194,3.7184,3.7239,3.7263,3.7232,3.7361,3.7314,3.7324,3.7325,3.7354,3.7372,3.7387,3.7186,3.7185,3.7184,0,0,3.7366,3.7357,3.74,3.7394,3.7383,3.7357,3.7367,3.7345,3.7333,3.7372,3.7318,3.7337,3.7365,3.7359,3.736,3.7475,3.7433,3.7481,3.7555,3.7587,3.7601,3.7614,3.7653,3.7668,3.7489,3.7489,3.7489,0,3.744,3.7473,3.7428,3.7459,3.7462,3.7398,3.7441,3.7438,3.7431,3.7435,3.7401,3.7432,3.7422,3.7474,3.7502,3.7505,3.7515,3.7482,3.7603,3.7615,3.7626,3.7663,3.7678,3.7495,3.7494,3.7494,3.7493,0,3.7564,3.7588,3.7625,3.7619,3.7626,3.7664,3.7624,3.7637,3.7605,3.7583,3.7622,3.7607,3.7614,3.7625,3.7595,3.7672,3.7653,3.7612,3.755,3.7649,3.7683,3.7697,3.7503,3.7501,3.7499,3.7498,0,0,3.7743,3.771,3.7725,3.772,3.7703,3.772,3.7754,3.776,3.7771,3.7769,3.7796,3.782,3.7781,3.7782,3.7751,3.778,3.7869,3.7734,3.7733,3.7758,3.7952,3.7982,3.8,3.7842,3.7844,3.7846,3.7952,0,3.7854,3.791,3.7869,3.7932,3.7952,3.7891,3.792,3.7912,3.7892,3.7906,3.7884,3.7901,3.785,3.785,3.7875,3.7853,3.7907,3.7845,3.7865,3.7867,3.7868,3.8018,3.805,3.8151,3.7966,3.7968,3.7969,0,3.7992,3.7994,3.8058,3.8034,3.8041,3.8068,3.807,3.8084,3.8074,3.8057,3.8058,3.8019,3.805,3.799,3.8032,3.7991,3.7997,3.7987,3.799,3.7989,3.7923,3.802,3.8182,3.8197,3.799,3.7988,3.7987,0,3.8113,3.8133,3.8173,3.8171,3.8145,3.8165,3.8155,3.8142,3.8147,3.8149,3.8152,3.8158,3.8161,3.8166,3.8129,3.8089,3.8175,3.8113,3.8161,3.8162,3.8181,3.818,3.8346,3.8188,3.8187,3.8187,3.8187,0,3.8241,3.8282,3.8227,3.8252,3.8296,3.8249,3.8294,3.8278,3.8266,3.8286,3.8234,3.8254,3.8204,3.8219,3.8191,3.8229,3.8231,3.8218,3.8209,3.8221,3.8223,3.8224,3.8215,3.8191,3.819,3.8189,3.8189,0,3.8384,3.8349,3.8388,3.836,3.8353,3.8387,3.8362,3.8384,3.836,3.8386,3.8389,3.8352,3.8367,3.833,3.834,3.8321,3.8375,3.8356,3.8378,3.8372,3.8422,3.8417,3.8593,3.8613,3.8444,3.8445,3.8447,0,3.8467,3.8497,3.8471,3.848,3.8473,3.8489,3.8494,3.8449,3.8457,3.8446,3.8469,3.8479,3.8484,3.8511,3.8485,3.8492,3.8472,3.8533,3.8472,3.8483,3.8471,3.8469,3.8471,3.8545,3.8547,3.8549,3.855,0,3.8618,3.8598,3.8607,3.861,3.8617,3.8618,3.8614,3.8625,3.8577,3.8588,3.8601,3.8606,3.8615,3.8625,3.8626,3.8616,3.8575,3.8569,3.858,3.8593,3.8603,3.8597,3.8411,3.8565,3.8564,3.8562,3.8562,3.8561,3.8732,3.8755,3.874,3.8751,3.8744,3.8741,3.8759,3.8737,3.8748,3.8751,3.8724,3.8743,3.8731,3.8727,3.8721,3.8735,3.8708,3.8725,3.8728,3.8733,3.8741,3.8602,3.8736,3.8735,3.8735,3.8734,3.8734,0,3.8879,3.8865,3.8876,3.8872,3.8881,3.8841,3.8835,3.8845,3.8862,3.8854,3.886,3.8875,3.8885,3.8859,3.8865,3.8881,3.8862,3.8884,3.8882,3.888,3.8766,3.8755,3.8899,3.8899,3.8899,3.8899,3.8899,3.8899,3.8956,3.8992,3.8971,3.9002,3.8989,3.9006,3.9006,3.9003,3.8996,3.9015,3.9022,3.9005,3.8989,3.8993,3.9,3.8992,3.8996,3.9024,3.901,3.8904,3.8888,3.8872,3.8862,3.9026,3.9026,3.9122,3.9123,3.9124]}]]